Steamboat Springs, CO

3:21 AM MDT on April 27, 2018 (GMT -0600)
Steamboat Springs-Adams

Weather History for KSBS - February, 2014

Change the Weather History Date:

Friday, February 28, 2014

  Actual Average Record
Temperature  
Mean Temperature 37 °F -  
Max Temperature 43 °F 38 °F 52 °F (1940)
Min Temperature 31 °F 9 °F -39 °F (1962)
Degree Days  
Heating Degree Days 28    
Moisture  
Dew Point 27 °F    
Average Humidity 76    
Maximum Humidity 100    
Minimum Humidity 36    
Precipitation  
Precipitation 0.00 in - - ()
Sea Level Pressure  
Sea Level Pressure 29.79 in    
Wind  
Wind Speed 2 mph (WSW)    
Max Wind Speed 13 mph    
Max Gust Speed -    
Visibility 7 miles    
Events      
Averages and records for this station are not official NWS values.
T = Trace of Precipitation, MM = Missing Value Source: NWS Daily Summary

Daily Weather History Graph

Daily Weather History Graph

Search for Another Location

Airport or City:

Astronomy

Feb. 28, 2014 Rise Set
Actual Time 6:42 AM MST 5:57 PM MST
Civil Twilight 6:15 AM MST 6:25 PM MST
Nautical Twilight 5:43 AM MST 6:56 PM MST
Astronomical Twilight 5:12 AM MST 7:28 PM MST
Moon 5:59 AM MST (2/28) 5:38 PM MST (2/28)
Length of Visible Light 12h 10m
Length of Day
11h 15m
Waning Crescent, 0% of the Moon is Illuminated
Feb 28
Waning Crescent
Mar 1
New
Mar 8
First Quarter
Mar 16
Full
Mar 23
Last Quarter

Hourly Weather History & Observations

Time (MST) Temp. Windchill Dew Point Humidity Pressure Visibility Wind Dir Wind Speed Gust Speed Precip Events Conditions
12:15 AM 32.7 °F - 32.4 °F 99% 29.70 in 2.5 mi Calm Calm - N/A   Overcast
12:35 AM 32.5 °F - 32.4 °F 99% 29.71 in 1.8 mi Calm Calm - N/A   Overcast
12:55 AM 32.4 °F - 32.2 °F 99% 29.72 in 1.2 mi Calm Calm - N/A   Overcast
1:15 AM 32.2 °F 28.9 °F 32.0 °F 99% 29.73 in 1.5 mi WSW 3.5 mph - N/A   Overcast
1:35 AM 32.0 °F 27.5 °F 32.0 °F 100% 29.73 in 0.8 mi WSW 4.6 mph - N/A   Overcast
1:55 AM 32.0 °F 28.7 °F 32.0 °F 100% 29.74 in 0.8 mi WSW 3.5 mph - N/A   Overcast
2:15 AM 32.0 °F - 32.0 °F 100% 29.74 in 0.8 mi Calm Calm - N/A   Overcast
2:35 AM 32.0 °F 27.5 °F 32.0 °F 100% 29.74 in 1.0 mi SW 4.6 mph - N/A   Overcast
2:55 AM 32.0 °F 24.2 °F 32.0 °F 100% 29.75 in 1.8 mi SW 9.2 mph - N/A   Overcast
3:15 AM 32.0 °F 24.8 °F 32.0 °F 100% 29.76 in 2.5 mi WSW 8.1 mph - N/A   Overcast
3:35 AM 32.0 °F 24.2 °F 32.0 °F 100% 29.76 in 2.0 mi SW 9.2 mph - N/A   Overcast
3:55 AM 32.0 °F 22.5 °F 32.0 °F 100% 29.76 in 2.0 mi SW 12.7 mph - N/A   Overcast
4:15 AM 32.0 °F 24.2 °F 32.0 °F 100% 29.77 in 2.0 mi WSW 9.2 mph - N/A   Overcast
4:35 AM 31.8 °F 27.3 °F 31.8 °F 100% 29.78 in 4.0 mi WSW 4.6 mph - N/A   Overcast
4:55 AM 31.8 °F 27.3 °F 31.8 °F 100% 29.78 in 5.0 mi WSW 4.6 mph - N/A   Overcast
5:15 AM 31.6 °F 28.3 °F 31.6 °F 100% 29.79 in 10.0 mi SSW 3.5 mph - N/A   Overcast
5:35 AM 32.0 °F 27.5 °F 31.6 °F 99% 29.79 in 10.0 mi SW 4.6 mph - N/A   Overcast
5:55 AM 32.0 °F - 30.6 °F 94% 29.80 in 3.0 mi Calm Calm - N/A   Overcast
6:15 AM 31.8 °F - 30.9 °F 96% 29.80 in 2.5 mi Calm Calm - N/A   Overcast
6:35 AM 31.6 °F - 31.1 °F 98% 29.81 in 3.0 mi Calm Calm - N/A   Overcast
6:55 AM 31.5 °F 28.1 °F 31.1 °F 99% 29.82 in 0.5 mi WSW 3.5 mph - N/A   Overcast
7:15 AM 31.5 °F 25.8 °F 31.1 °F 99% 29.82 in 0.5 mi SSW 5.8 mph - N/A   Overcast
7:35 AM 31.1 °F 24.5 °F 30.9 °F 99% 29.84 in 1.8 mi SW 6.9 mph - N/A   Overcast
7:55 AM 31.1 °F - 30.7 °F 99% 29.85 in 5.0 mi Calm Calm - N/A   Overcast
8:15 AM 31.1 °F - 30.2 °F 96% 29.85 in 3.0 mi Calm Calm - N/A   Overcast
8:35 AM 32.0 °F - 29.5 °F 90% 29.85 in 10.0 mi Calm Calm - N/A   Overcast
8:55 AM 32.7 °F - 28.0 °F 83% 29.86 in 10.0 mi Calm Calm - N/A   Overcast
9:15 AM 33.4 °F - 27.9 °F 80% 29.86 in 10.0 mi Calm Calm - N/A   Overcast
9:35 AM 33.1 °F 30.0 °F 29.8 °F 88% 29.86 in 10.0 mi ENE 3.5 mph - N/A   Overcast
9:55 AM 34.3 °F - 27.5 °F 76% 29.86 in 10.0 mi Calm Calm - N/A   Overcast
10:15 AM 35.1 °F - 26.1 °F 70% 29.87 in 10.0 mi Calm Calm - N/A   Overcast
10:35 AM 35.2 °F - 25.0 °F 66% 29.88 in 10.0 mi Calm Calm - N/A   Overcast
10:55 AM 36.7 °F - 23.7 °F 59% 29.87 in 10.0 mi Calm Calm - N/A   Overcast
11:15 AM 38.1 °F - 23.2 °F 55% 29.87 in 10.0 mi Calm Calm - N/A   Overcast
11:35 AM 38.5 °F - 23.5 °F 55% 29.86 in 10.0 mi Calm Calm - N/A   Overcast
11:55 AM 40.6 °F 37.5 °F 23.4 °F 50% 29.86 in 10.0 mi West 4.6 mph - N/A   Overcast
12:15 PM 41.2 °F 39.2 °F 23.2 °F 49% 29.84 in 10.0 mi WNW 3.5 mph - N/A   Overcast
12:35 PM 39.2 °F - 22.3 °F 51% 29.83 in 10.0 mi Calm Calm - N/A   Overcast
12:55 PM 39.6 °F - 21.6 °F 49% 29.82 in 10.0 mi Calm Calm - N/A   Overcast
1:15 PM 39.2 °F - 21.2 °F 49% 29.81 in 10.0 mi Calm Calm - N/A   Overcast
1:35 PM 40.1 °F - 20.3 °F 45% 29.80 in 10.0 mi Calm Calm - N/A   Overcast
1:55 PM 40.6 °F 38.6 °F 21.9 °F 47% 29.80 in 10.0 mi NE 3.5 mph - N/A   Overcast
2:15 PM 43.5 °F 41.9 °F 18.5 °F 37% 29.79 in 10.0 mi SSE 3.5 mph - N/A   Overcast
2:35 PM 42.4 °F - 18.5 °F 38% 29.79 in 10.0 mi Calm Calm - N/A   Mostly Cloudy
2:55 PM 42.4 °F - 17.1 °F 36% 29.79 in 10.0 mi Calm Calm - N/A   Overcast
3:15 PM 41.9 °F - 17.1 °F 37% 29.80 in 10.0 mi Calm Calm - N/A   Overcast
3:35 PM 41.4 °F 39.4 °F 16.7 °F 37% 29.78 in 10.0 mi NNW 3.5 mph - N/A   Overcast
3:55 PM 41.4 °F - 17.8 °F 39% 29.78 in 10.0 mi Calm Calm - N/A   Overcast
4:15 PM 41.2 °F - 18.5 °F 40% 29.77 in 10.0 mi Calm Calm - N/A   Overcast
4:35 PM 40.1 °F - 21.2 °F 47% 29.77 in 10.0 mi Calm Calm - N/A   Overcast
4:55 PM 38.8 °F 32.6 °F 22.6 °F 52% 29.78 in 10.0 mi SE 9.2 mph - N/A   Overcast
5:15 PM 38.7 °F 35.2 °F 20.5 °F 48% 29.80 in 10.0 mi SW 4.6 mph - N/A   Overcast
5:35 PM 37.9 °F 33.5 °F 21.4 °F 51% 29.80 in 10.0 mi SW 5.8 mph - N/A   Overcast
5:55 PM 38.5 °F 36.1 °F 21.0 °F 50% 29.81 in 10.0 mi WSW 3.5 mph - N/A   Overcast
6:15 PM 37.4 °F 32.1 °F 22.3 °F 54% 29.80 in 10.0 mi NNW 6.9 mph - N/A   Overcast
6:35 PM 36.7 °F 34.1 °F 23.7 °F 59% 29.80 in 10.0 mi North 3.5 mph - N/A   Overcast
6:55 PM 36.5 °F - 24.4 °F 62% 29.81 in 10.0 mi Calm Calm - N/A   Overcast
7:15 PM 35.6 °F - 25.7 °F 67% 29.80 in 10.0 mi Calm Calm - N/A   Overcast
7:35 PM 35.2 °F - 26.6 °F 71% 29.80 in 7.0 mi Calm Calm - N/A   Overcast
7:55 PM 34.0 °F 29.8 °F 28.0 °F 79% 29.79 in 3.0 mi NNE 4.6 mph - N/A   Overcast
8:15 PM 33.8 °F - 28.0 °F 79% 29.78 in 10.0 mi Calm Calm - N/A   Overcast
8:35 PM 34.2 °F - 27.7 °F 77% 29.77 in 10.0 mi Calm Calm - N/A   Overcast
8:55 PM 33.4 °F - 28.0 °F 81% 29.76 in 10.0 mi Calm Calm - N/A   Overcast
9:15 PM 33.8 °F 30.8 °F 27.9 °F 79% 29.76 in 10.0 mi NNW 3.5 mph - N/A   Overcast
9:35 PM 34.0 °F - 27.5 °F 77% 29.76 in 10.0 mi Calm Calm - N/A   Overcast
9:55 PM 33.6 °F - 27.9 °F 79% 29.75 in 10.0 mi Calm Calm - N/A   Overcast
10:15 PM 33.1 °F - 28.4 °F 83% 29.74 in 10.0 mi Calm Calm - N/A   Overcast
10:35 PM 32.2 °F - 30.2 °F 92% 29.74 in 10.0 mi Calm Calm - N/A   Overcast
10:55 PM 32.9 °F - 30.2 °F 90% 29.72 in 10.0 mi Calm Calm - N/A   Overcast
11:15 PM 32.9 °F 29.8 °F 30.2 °F 90% 29.73 in 4.0 mi NW 3.5 mph - N/A   Overcast
11:35 PM 32.0 °F 27.5 °F 31.1 °F 96% 29.72 in 2.0 mi North 4.6 mph - N/A   Overcast
11:55 PM 32.4 °F 29.1 °F 32.0 °F 99% 29.71 in 2.5 mi East 3.5 mph - N/A   Overcast